Wind_Speed
32 29 36 33 35 33 25 26 22 17 11 16 19 21 22 22 22 22 18 18 18 18 16 17 16 14 16 17 15 16 20 9 11 14 18 14 24 20 20 23 28 23 22 38
29 42 33 29 29 28 30 29 27 23 17 15 20 22 22 23 25 23 22 19 20 18 18 19 16 14 15 14 12 14 10 4 11 10 14 14 16 18 27 24 26 20 20 43
36 34 32 30 30 30 30 31 28 25 18 15 19 26 26 27 26 24 21 19 19 19 20 19 16 13 13 12 10 10 7 6 9 12 15 15 15 20 27 28 21 16 18 27
28 30 25 29 36 30 29 25 26 24 22 23 20 21 20 13 17 19 20 19 19 20 20 20 16 13 11 11 10 8 6 7 9 12 12 15 15 19 26 25 23 15 18 24
24 19 28 29 30 28 32 21 23 22 22 22 26 18 21 21 23 17 17 20 21 20 21 19 16 15 13 9 10 9 6 6 8 11 12 17 16 19 27 24 24 24 21 26
21 20 16 25 24 22 20 22 16 19 20 20 26 25 23 22 18 15 14 15 15 18 20 19 18 18 15 10 9 9 7 6 6 7 10 16 17 22 26 28 23 23 27 24
33 28 25 14 18 20 23 18 12 13 15 13 16 19 24 10 7 10 13 14 14 17 19 22 23 18 16 12 10 11 10 8 7 7 6 8 14 20 23 23 28 26 28 29
18 20 28 19 19 21 22 28 15 14 11 13 23 9 19 17 13 10 10 10 14 14 16 22 25 22 15 15 14 14 13 11 9 8 6 6 7 14 21 24 29 25 21 26
7 17 20 22 28 17 20 30 26 14 16 7 12 12 6 9 10 6 7 9 14 16 16 19 28 25 21 20 17 16 16 15 12 10 9 7 7 6 10 21 23 24 24 26
16 20 17 21 22 30 20 15 16 15 6 12 14 18 13 11 12 9 3 2 5 10 14 18 25 27 25 23 20 20 20 18 16 14 12 10 9 8 8 11 12 16 20 22
24 18 9 18 27 30 28 30 20 19 23 4 3 7 7 11 7 10 6 2 3 2 7 14 20 25 27 27 24 24 23 22 20 19 17 16 14 13 13 12 12 12 16 21
20 9 18 12 23 22 26 26 27 17 14 21 18 6 9 5 7 9 3 2 2 5 2 8 14 19 22 29 25 26 25 24 22 21 20 20 20 19 18 17 16 17 17 19
4 12 18 8 14 12 24 25 28 27 22 15 3 3 11 12 7 6 8 8 7 6 8 5 11 16 21 26 27 25 25 23 22 22 22 22 23 25 24 24 23 23 24 24
5 9 15 10 2 8 19 17 23 21 20 20 22 23 18 16 12 12 14 14 12 11 10 9 10 13 19 24 27 28 27 28 28 29 29 29 28 26 26 29 30 30 30 31
5 9 9 11 7 4 5 8 11 15 17 16 15 14 14 14 13 15 16 18 20 22 20 13 13 15 18 21 27 30 30 29 31 34 36 36 35 34 32 34 34 34 35 36
10 11 8 12 13 11 13 13 15 17 17 18 19 22 21 20 16 16 19 20 21 19 21 18 17 16 20 24 24 28 28 27 28 29 30 31 31 34 35 35 35 36 38 38
9 10 13 16 10 10 14 18 20 18 17 17 20 13 8 6 7 10 14 16 18 20 20 20 26 17 18 22 25 26 29 30 30 28 25 24 27 30 30 32 34 35 38 40
12 10 11 13 8 11 13 9 5 11 15 11 10 10 6 8 11 12 15 20 20 27 30 28 25 25 27 25 27 28 32 31 32 34 33 30 28 27 29 31 32 31 32 35
20 18 13 14 16 19 20 10 9 11 15 8 9 8 7 8 8 8 4 13 17 15 21 33 29 29 32 32 28 29 32 35 36 35 37 36 35 33 32 32 31 28 28 29
20 20 19 9 14 11 19 6 8 11 13 3 4 5 7 8 7 14 15 18 16 14 17 22 36 32 32 33 29 30 24 29 39 39 38 40 43 42 40 37 35 33 32 30
22 21 25 22 15 9 7 4 3 12 6 1 2 4 7 8 11 17 18 20 19 20 18 20 25 33 34 35 37 34 31 29 25 28 38 46 44 40 39 42 48 42 41 38
20 17 18 18 10 18 10 8 10 5 1 3 5 9 14 13 14 15 17 18 20 19 20 26 24 25 35 38 39 40 39 38 37 35 33 39 45 48 49 56 50 50 44 44
14 16 16 17 16 5 7 13 7 7 8 11 13 16 20 21 21 20 21 16 17 17 21 25 30 27 21 27 42 41 37 36 39 44 40 36 38 41 46 43 56 52 52 49
12 13 10 12 10 12 4 12 10 12 16 19 21 22 24 25 26 28 29 29 25 22 23 22 20 24 26 25 21 25 35 37 41 46 46 37 41 45 40 46 49 50 50 49
12 10 14 14 10 9 5 5 20 16 21 22 23 24 25 26 25 23 25 24 22 25 27 25 23 19 19 24 27 21 21 27 31 35 38 43 38 41 49 47 46 47 41 44
10 11 12 9 12 10 9 17 19 22 28 30 29 28 27 26 25 24 23 23 22 28 28 27 24 22 19 23 26 30 26 20 18 21 25 24 25 30 34 39 42 35 43 36
Wind_Direction
233 221 224 225 232 236 242 249 247 247 249 227 247 252 250 252 255 258 261 260 255 248 242 278 279 285 287 287 295 308 311 282 201 210 211 220 222 216 219 237 217 217 209 186
226 230 230 232 234 237 238 244 249 253 253 244 254 257 259 259 256 254 257 257 253 247 237 268 271 279 287 286 292 308 306 229 201 212 216 203 207 226 234 220 213 230 234 191
224 229 231 229 233 232 236 237 242 249 261 244 262 267 264 262 255 248 249 247 243 243 238 258 263 271 280 277 289 301 279 237 197 200 216 206 209 211 215 213 230 241 221 209
235 231 233 232 232 230 238 232 243 250 254 255 255 273 260 266 246 241 245 245 244 237 235 244 251 259 267 269 278 283 266 232 234 228 232 222 230 220 212 226 236 236 211 201
232 232 227 230 231 229 237 238 244 250 249 252 248 253 264 264 248 244 243 245 243 240 231 244 244 248 254 259 261 265 250 221 221 241 254 228 228 227 225 229 230 229 224 202
243 232 231 234 238 233 233 234 242 239 242 245 242 242 254 250 240 240 238 236 233 232 226 232 235 242 250 248 244 245 240 221 204 211 229 242 239 225 229 233 226 232 231 229
249 247 245 239 233 225 215 204 214 215 224 238 236 228 234 215 210 230 237 235 236 233 221 222 233 242 246 247 234 230 230 215 207 200 215 245 246 231 234 232 239 234 239 237
239 243 236 226 221 222 215 209 214 219 221 233 222 228 237 239 243 214 219 230 224 229 229 226 233 236 237 237 235 225 223 218 216 204 194 214 238 235 228 230 231 238 237 246
249 238 235 231 224 212 217 223 221 296 265 261 201 219 202 199 193 237 251 256 237 235 244 230 226 234 237 231 236 225 222 223 217 220 215 206 207 216 217 226 227 233 236 243
247 284 242 237 223 223 218 212 236 234 248 237 249 254 223 190 209 218 269 223 215 229 233 223 225 234 236 230 228 222 222 222 223 223 232 229 218 208 207 213 219 217 222 228
230 261 272 209 217 216 220 226 228 225 231 239 240 250 235 189 177 238 189 141 35 336 223 223 233 239 237 227 223 222 222 226 228 230 228 233 237 235 225 220 221 221 220 221
204 248 272 219 215 227 225 222 220 234 240 241 246 260 177 143 184 159 193 314 292 351 332 247 237 241 238 224 224 226 226 229 233 236 240 242 241 239 241 239 233 230 229 231
188 228 237 238 213 229 223 229 228 232 243 241 270 201 233 231 268 274 276 284 263 290 302 288 251 242 236 227 228 229 229 229 230 234 238 241 247 247 248 244 240 238 237 237
317 256 240 274 310 219 220 223 222 228 237 250 250 258 254 266 267 281 279 276 275 267 279 282 265 253 238 233 232 232 232 235 237 239 241 243 245 252 253 249 246 243 242 243
294 261 277 266 296 311 248 219 229 232 237 252 258 258 255 259 271 268 277 285 278 264 275 268 270 260 255 241 238 240 240 242 245 248 251 253 253 251 251 248 247 249 247 248
257 265 280 272 265 268 262 247 240 243 247 253 260 266 267 273 264 267 272 276 277 271 267 268 267 263 255 258 247 238 236 240 246 251 255 255 253 251 251 250 249 250 248 248
253 250 255 268 263 269 267 254 244 246 247 251 253 268 241 252 274 273 275 279 274 276 274 270 254 253 252 249 258 246 239 241 245 245 249 252 252 250 248 248 249 251 252 250
233 235 239 262 261 251 258 249 251 248 251 237 250 262 262 279 294 304 275 259 255 247 246 248 247 245 253 253 247 255 250 250 249 244 245 249 250 249 247 246 252 254 256 255
227 219 230 230 242 255 260 254 253 255 242 241 246 265 269 273 285 251 306 286 276 293 274 254 246 249 249 249 260 255 258 259 253 248 246 248 252 248 248 250 246 247 251 252
214 216 221 222 239 255 257 270 197 228 228 209 237 268 304 307 283 253 305 291 279 296 293 283 255 251 250 246 253 257 259 258 257 252 248 246 249 253 247 243 240 244 246 251
198 203 216 225 240 252 218 193 261 224 196 10 343 321 311 313 289 284 291 284 303 307 303 288 267 253 248 248 246 248 257 261 267 265 257 252 248 248 246 253 245 243 246 252
190 192 207 223 240 245 255 238 234 213 150 300 318 318 308 298 302 305 310 304 305 306 304 287 287 268 256 253 254 256 258 258 259 259 275 265 252 238 242 244 246 250 248 249
204 200 202 205 229 214 202 218 201 222 298 297 291 282 291 304 304 300 300 313 294 305 301 298 282 280 279 270 256 256 261 263 261 258 266 270 268 262 251 251 248 242 244 247
229 218 228 225 210 201 270 188 245 266 293 291 295 293 293 298 300 301 299 293 293 280 283 295 310 292 286 290 298 276 263 258 260 259 258 264 263 262 268 251 246 245 242 250
242 219 226 249 261 249 236 272 268 284 283 288 288 288 292 296 295 300 296 292 280 272 276 281 295 305 319 302 281 291 284 266 258 263 259 262 267 252 250 251 258 251 248 250
231 234 229 234 232 221 251 274 260 271 276 278 281 283 287 286 288 287 293 289 284 276 272 275 280 285 305 307 306 286 274 284 271 269 261 257 259 253 246 250 251 238 249 247
Height
3055 3059 3055 3062 3065 3069 3071 3069 3067 3068 3071 3072 3072 3071 3071 3072 3072 3071 3072 3072 3073 3073 3072 3069 3068 3067 3066 3065 3063 3061 3056 3052 3054 3055 3057 3059 3060 3063 3068 3071 3072 3077 3080 3085
3054 3043 3054 3059 3062 3065 3066 3066 3065 3067 3068 3068 3068 3066 3066 3066 3065 3066 3066 3067 3067 3068 3068 3065 3065 3065 3064 3062 3061 3059 3055 3053 3053 3054 3056 3060 3061 3063 3064 3068 3073 3076 3079 3083
3042 3043 3049 3053 3056 3058 3059 3060 3062 3064 3064 3063 3064 3061 3059 3058 3058 3059 3060 3061 3063 3063 3064 3061 3061 3061 3061 3060 3059 3059 3056 3054 3054 3054 3055 3058 3061 3062 3065 3069 3073 3075 3079 3083
3037 3041 3045 3047 3048 3053 3053 3056 3057 3059 3061 3059 3059 3051 3050 3050 3050 3052 3054 3055 3056 3058 3059 3058 3058 3058 3058 3058 3057 3058 3056 3054 3054 3054 3054 3055 3058 3061 3065 3069 3072 3075 3079 3083
3033 3035 3038 3040 3042 3047 3047 3053 3053 3054 3055 3057 3053 3053 3046 3047 3046 3048 3049 3050 3051 3053 3054 3053 3054 3055 3055 3055 3055 3056 3056 3054 3052 3053 3055 3055 3057 3060 3063 3067 3071 3074 3078 3083
3029 3031 3035 3035 3039 3042 3046 3049 3049 3050 3051 3046 3046 3047 3040 3040 3040 3042 3044 3045 3047 3048 3049 3049 3050 3051 3052 3053 3053 3054 3055 3054 3053 3052 3053 3054 3054 3057 3059 3063 3067 3070 3074 3078
3026 3025 3029 3032 3034 3037 3040 3042 3042 3042 3040 3037 3037 3038 3037 3035 3036 3040 3040 3041 3042 3043 3044 3045 3046 3048 3049 3050 3051 3052 3053 3054 3054 3053 3053 3053 3053 3055 3057 3061 3065 3069 3072 3075
3023 3021 3023 3026 3029 3033 3034 3035 3031 3031 3027 3027 3027 3030 3028 3032 3034 3036 3037 3037 3038 3039 3040 3041 3042 3044 3047 3048 3048 3049 3051 3052 3053 3053 3052 3052 3053 3053 3055 3058 3062 3064 3068 3073
3019 3017 3018 3021 3025 3028 3030 3027 3032 3033 3030 3028 3026 3026 3026 3028 3031 3034 3034 3033 3033 3036 3036 3036 3038 3040 3042 3044 3046 3047 3048 3049 3050 3052 3051 3052 3052 3053 3053 3056 3057 3059 3063 3067
3018 3016 3013 3015 3021 3023 3024 3029 3031 3031 3027 3025 3020 3020 3021 3024 3027 3031 3032 3032 3031 3032 3033 3032 3034 3036 3038 3041 3042 3044 3045 3046 3048 3048 3050 3051 3052 3052 3053 3055 3056 3058 3061 3065
3016 3017 3010 3011 3012 3016 3021 3023 3026 3026 3025 3020 3020 3018 3017 3021 3025 3029 3029 3031 3030 3029 3029 3030 3031 3032 3033 3036 3038 3040 3041 3043 3044 3046 3047 3049 3051 3052 3052 3053 3056 3058 3059 3062
3012 3013 3008 3007 3008 3012 3013 3015 3019 3020 3021 3020 3020 3021 3019 3020 3022 3022 3026 3029 3030 3029 3028 3026 3027 3027 3028 3031 3034 3036 3038 3040 3041 3043 3045 3046 3047 3049 3050 3052 3053 3054 3056 3059
3010 3009 3009 3008 3010 3008 3007 3009 3012 3015 3017 3020 3022 3017 3017 3021 3023 3023 3024 3025 3028 3029 3028 3026 3025 3025 3026 3028 3031 3033 3034 3036 3038 3039 3040 3042 3043 3044 3047 3048 3050 3051 3052 3054
3009 3008 3004 3001 3001 3003 3004 3005 3007 3011 3014 3014 3015 3016 3017 3019 3020 3021 3023 3024 3024 3025 3026 3026 3025 3023 3024 3025 3027 3029 3030 3032 3033 3034 3035 3036 3038 3040 3041 3043 3044 3045 3047 3048
3009 3007 3006 3003 3003 3004 3004 3005 3007 3009 3012 3012 3013 3013 3015 3016 3017 3019 3019 3019 3019 3019 3021 3023 3024 3022 3020 3021 3022 3024 3025 3026 3028 3028 3029 3030 3032 3034 3035 3036 3037 3039 3040 3042
3007 3006 3005 3003 3003 3004 3005 3006 3007 3008 3009 3010 3011 3011 3013 3012 3012 3014 3014 3014 3013 3014 3015 3016 3017 3018 3018 3016 3017 3018 3019 3021 3022 3023 3024 3024 3024 3026 3027 3029 3030 3032 3033 3034
3004 3004 3004 3002 3003 3003 3003 3002 3001 3003 3004 3005 3005 3006 3007 3008 3008 3009 3008 3007 3008 3011 3011 3009 3008 3010 3012 3013 3012 3012 3014 3015 3016 3017 3018 3019 3019 3019 3021 3022 3023 3024 3025 3026
3000 3002 3003 3001 3000 2998 2997 2997 2997 2998 2999 3000 3001 3002 3002 3004 3004 3004 3002 3000 2999 2998 2999 3000 3001 3002 3003 3005 3006 3007 3007 3007 3009 3011 3012 3013 3013 3013 3014 3015 3015 3017 3017 3018
2996 2999 3000 3000 2997 2996 2995 2995 2997 2997 2997 2995 2999 3000 3000 3000 3000 3002 2997 2996 2994 2993 2993 2993 2993 2993 2996 2998 2999 2999 2999 3000 3000 3003 3005 3006 3007 3007 3007 3008 3009 3010 3010 3011
2990 2993 2997 2996 2995 2990 2992 2990 2988 2994 2996 2994 2996 2997 2997 2997 2997 2996 2992 2991 2989 2987 2985 2984 2985 2987 2987 2989 2991 2992 2992 2992 2991 2995 2997 2996 2999 3000 3000 3001 3001 3001 3001 3002
2984 2988 2989 2992 2990 2988 2985 2988 2988 2991 2997 2991 2992 2993 2992 2992 2992 2989 2987 2987 2987 2984 2981 2978 2976 2977 2978 2979 2981 2982 2983 2984 2984 2984 2985 2986 2987 2990 2992 2993 2992 2992 2991 2992
2978 2983 2985 2989 2988 2987 2986 2988 2989 2988 2987 2987 2987 2986 2985 2986 2987 2985 2985 2983 2981 2980 2978 2974 2972 2969 2970 2971 2971 2972 2972 2973 2975 2976 2976 2974 2975 2976 2978 2978 2982 2982 2984 2983
2975 2976 2978 2982 2981 2982 2981 2981 2983 2981 2982 2982 2982 2982 2981 2981 2981 2981 2980 2979 2977 2974 2971 2968 2967 2966 2963 2962 2962 2963 2963 2964 2965 2966 2965 2965 2965 2965 2967 2969 2969 2971 2971 2971
2972 2972 2974 2975 2977 2974 2974 2977 2976 2977 2977 2978 2978 2977 2976 2976 2975 2974 2973 2971 2970 2968 2966 2965 2962 2959 2958 2956 2954 2953 2952 2953 2955 2954 2955 2955 2955 2956 2956 2957 2957 2957 2959 2960
2971 2970 2973 2974 2974 2977 2976 2972 2971 2974 2972 2972 2973 2972 2972 2971 2970 2969 2966 2965 2963 2962 2961 2960 2959 2956 2953 2950 2948 2946 2944 2945 2944 2944 2943 2944 2944 2943 2944 2945 2947 2949 2947 2948
2968 2967 2969 2970 2967 2971 2971 2966 2969 2969 2967 2967 2967 2967 2967 2966 2964 2963 2961 2960 2958 2956 2955 2954 2953 2951 2948 2946 2943 2939 2937 2938 2937 2936 2935 2935 2936 2935 2934 2935 2936 2935 2936 2937